[[{"header":{"parameterUnit":"m.s-1","parameterCategory":1,"la1":30.2991,"la2":30.254,"lo1":-89.0895,"lo2":-89.0444,"dy":0.0017,"dx":0.0017,"nx":28,"ny":28,"refTime":"2024-10-08T03:00:00:Z","depth":0,"parameterNumber":2,"parameterNumberName":"U-component_of_WINDS"},"data":[0,0,0,0,0,0,0,0,0,0,0,0,0,0,0,0,0,0,0,0,0,0,0,0,0,0,0,0,0,0,0,0,0,0,0,0,0,0,0,0,0,0,0,0,0,0,0,0,0,0,0,0,0,0,0,0,0,0,-1.5198,-1.5198,0,-1.5221,-1.5221,-1.5222,-1.5214,-1.5213,-1.5213,-1.5212,-1.5238,-1.5239,-1.524,0,0,0,0,0,0,0,0,0,0,0,0,0,-1.5148,-1.5149,-1.5198,-1.5198,-1.5199,-1.5221,-1.5221,-1.5222,-1.5214,-1.5213,-1.5213,-1.5212,-1.5237,-1.5239,-1.524,0,0,0,0,0,0,0,0,0,0,0,0,0,-1.5171,-1.515,-1.5198,-1.5197,-1.5198,-1.5221,-1.5221,-1.5222,-1.5214,-1.5213,-1.5213,-1.5212,-1.5237,-1.5238,-1.524,-1.5266,0,0,-1.5245,-1.5246,0,0,0,0,0,0,0,0,-1.5169,-1.5172,-1.5197,-1.5198,-1.5198,-1.5214,-1.5213,-1.5237,-1.5214,-1.5208,-1.5212,-1.5211,-1.523,-1.5233,-1.5239,-1.5267,-1.5268,-1.5246,-1.5247,-1.5247,-1.5248,0,0,0,0,0,0,0,-1.5168,-1.5171,-1.5207,-1.5198,-1.5198,-1.5196,-1.5199,-1.5218,-1.5223,-1.5208,-1.5208,-1.5211,-1.523,-1.5237,-1.5239,-1.5269,-1.5246,-1.5247,-1.5248,-1.5249,-1.532,-1.532,0,0,0,0,0,0,-1.5166,-1.517,-1.5207,-1.5208,-1.5181,-1.5198,-1.52,-1.5209,-1.5223,-1.5224,-1.5211,-1.521,-1.5234,-1.5237,-1.524,-1.5271,-1.5247,-1.5249,-1.525,-1.5319,-1.532,-1.5321,0,0,0,0,0,0,-1.5165,-1.5169,-1.5206,-1.5189,-1.5193,-1.52,-1.521,-1.521,-1.5217,-1.5225,-1.5226,-1.5217,-1.5234,-1.5238,-1.5259,-1.5272,-1.525,-1.5251,-1.5318,-1.5319,-1.532,-1.5333,0,0,0,0,0,0,-1.5164,-1.5169,-1.5179,-1.5189,-1.5194,-1.5224,-1.5211,-1.5211,-1.522,-1.5218,-1.5231,-1.5232,-1.5234,-1.5257,-1.5261,-1.5274,-1.5253,-1.5317,-1.5318,-1.532,-1.5332,-1.5335,-1.5337,0,0,0,0,0,-1.5162,-1.5182,-1.5179,-1.5184,-1.5206,-1.5225,-1.5228,-1.5229,-1.5221,-1.5231,-1.5236,-1.5232,-1.527,-1.5259,-1.5264,-1.5277,-1.5316,-1.5318,-1.532,-1.533,-1.5334,-1.5337,0,0,0,0,0,0,-1.5173,-1.5183,-1.518,-1.5204,-1.5214,-1.5224,-1.5236,-1.5233,-1.5245,-1.5244,-1.5245,-1.5248,-1.527,-1.5276,-1.5264,-1.5303,-1.5292,-1.5295,-1.5298,-1.5302,-1.5305,-1.5303,-1.5254,0,0,0,0,0,-1.5178,-1.5192,-1.52,-1.5221,-1.5225,-1.523,-1.5238,-1.5238,-1.5248,-1.5252,-1.5259,-1.527,-1.5284,-1.5293,-1.5307,-1.5333,-1.5335,-1.5344,-1.5347,-1.5349,-1.5352,-1.5366,-1.537,-1.5327,-1.5327,-1.5327,0,0,-1.5189,-1.5196,-1.5205,-1.5223,-1.523,-1.5245,-1.5233,-1.5249,-1.526,-1.5255,-1.5275,-1.5281,-1.5293,-1.5317,-1.5327,-1.5322,-1.5364,-1.5352,-1.5353,-1.5355,-1.5368,-1.5372,-1.5376,-1.5328,-1.5328,-1.5328,0,0,-1.5216,-1.5223,-1.5241,-1.5248,-1.5259,-1.5262,-1.5266,-1.5277,-1.528,-1.5301,-1.5297,-1.531,-1.5335,-1.5343,-1.5351,-1.5381,-1.5378,-1.5386,-1.54,-1.5414,-1.5417,-1.542,-1.5431,-1.5435,-1.5388,-1.5388,-1.5388,0,-1.5228,-1.525,-1.525,-1.5266,-1.5274,-1.5269,-1.5287,-1.5295,-1.531,-1.5316,-1.5309,-1.534,-1.5348,-1.5373,-1.5381,-1.5387,-1.5392,-1.5384,-1.5417,-1.542,-1.5422,-1.5432,-1.5436,-1.5389,-1.5389,-1.5389,-1.5389,0,-1.5264,-1.5279,-1.5292,-1.5306,-1.5315,-1.5332,-1.5336,-1.5345,-1.5344,-1.5348,-1.5369,-1.5378,-1.5394,-1.54,-1.5399,-1.5425,-1.5422,-1.5416,-1.5405,-1.5427,-1.5437,-1.5441,-1.539,-1.539,-1.539,-1.5389,0,0,-1.5299,-1.5313,-1.5317,-1.5323,-1.5335,-1.5347,-1.5364,-1.5378,-1.5386,-1.5397,-1.5411,-1.5432,-1.5427,-1.5436,-1.5436,-1.5448,-1.5471,-1.5441,-1.5441,-1.5446,-1.55,-1.5504,-1.5509,-1.5469,-1.547,-1.5471,-1.5499,0,-1.5326,-1.5355,-1.5356,-1.5383,-1.5396,-1.5392,-1.5407,-1.5416,-1.542,-1.5432,-1.5437,-1.5452,-1.5444,-1.5449,-1.546,-1.5466,-1.5482,-1.5464,-1.5483,-1.5483,-1.5479,-1.5514,-1.5518,-1.5544,-1.5503,-1.5504,-1.5504,0,-1.5362,-1.5374,-1.5401,-1.5411,-1.5417,-1.543,-1.5443,-1.5455,-1.5465,-1.5468,-1.5477,-1.5476,-1.5493,-1.5482,-1.5506,-1.5494,-1.5502,-1.5506,-1.5507,-1.5508,-1.5495,-1.5516,-1.5553,-1.5557,-1.551,-1.551,-1.5509,0,-1.5384,-1.5407,-1.5426,-1.5431,-1.5443,-1.5453,-1.5458,-1.5468,-1.5476,-1.5488,-1.5493,-1.5507,-1.5515,-1.5526,-1.5529,-1.552,-1.5553,-1.5542,-1.5556,-1.5556,-1.5563,-1.5562,-1.5601,-1.5568,-1.5568,-1.5568,-1.5568,0,-1.5415,-1.5432,-1.5436,-1.5448,-1.5467,-1.5468,-1.5487,-1.5492,-1.55,-1.5513,-1.5511,-1.5523,-1.5526,-1.554,-1.5542,-1.5562,-1.5566,-1.5568,-1.5568,-1.5568,-1.5568,-1.5573,-1.5571,-1.5569,-1.5569,-1.5569,-1.5569,0,-1.5442,-1.5445,-1.5466,-1.5476,-1.5479,-1.5492,-1.55,-1.5512,-1.5516,-1.5532,-1.5536,-1.5542,-1.5558,-1.5562,-1.558,-1.5582,-1.5605,-1.5604,-1.5601,-1.5601,-1.5615,-1.5613,-1.5658,-1.5664,-1.5628,-1.5628,-1.5628,0,-1.5461,-1.5474,-1.5485,-1.5493,-1.5499,-1.5512,-1.5521,-1.5523,-1.5532,-1.5545,-1.5555,-1.557,-1.5582,-1.5607,-1.5613,-1.5627,-1.5626,-1.5641,-1.5628,-1.5627,-1.5626,-1.5625,-1.5626,-1.5643,-1.5644,-1.5644,-1.5644,0,-1.5495,-1.5495,-1.5508,-1.552,-1.553,-1.5541,-1.555,-1.5557,-1.5561,-1.5571,-1.5586,-1.5596,-1.5614,-1.5629,-1.5644,-1.565,-1.5648,-1.5648,-1.5652,-1.5651,-1.5649,-1.565,-1.5607,-1.5647,-1.5647,-1.5647,-1.5646,-1.5646,-1.5518,-1.5529,-1.5538,-1.5552,-1.5559,-1.5569,-1.558,-1.5585,-1.5597,-1.5612,-1.5613,-1.5629,-1.564,-1.5659,-1.5666,-1.5679,-1.5675,-1.5681,-1.5682,-1.5683,-1.5684,-1.5647,-1.5682,-1.5682,-1.5682,-1.5682,-1.5682,0,-1.5551,-1.5556,-1.5569,-1.5582,-1.5593,-1.5589,-1.56,-1.5609,-1.5624,-1.5633,-1.5645,-1.5663,-1.5677,-1.5685,-1.57,-1.5709,-1.5708,-1.5713,-1.5712,-1.5713,-1.5687,-1.5682,-1.5713,-1.5713,-1.5713,-1.5713,-1.5713,-1.5713,-1.5569,-1.5587,-1.5589,-1.5612,-1.5617,-1.5633,-1.564,-1.5648,-1.5656,-1.5675,-1.5687,-1.5692,-1.5701,-1.5716,-1.5729,-1.5731,-1.5736,-1.5741,-1.5743,-1.5718,-1.5715,-1.5712,-1.5707,-1.5742,-1.5743,-1.5767,-1.5767,-1.5768]},{"header":{"parameterUnit":"m.s-1","parameterCategory":1,"la1":30.2991,"la2":30.254,"lo1":-89.0895,"lo2":-89.0444,"dy":0.0017,"dx":0.0017,"nx":28,"ny":28,"refTime":"2024-10-08T03:00:00:Z","depth":0,"parameterNumber":3,"parameterNumberName":"V-component_of_WINDS"},"data":[0,0,0,0,0,0,0,0,0,0,0,0,0,0,0,0,0,0,0,0,0,0,0,0,0,0,0,0,0,0,0,0,0,0,0,0,0,0,0,0,0,0,0,0,0,0,0,0,0,0,0,0,0,0,0,0,0,0,-4.6362,-4.6362,0,-4.6387,-4.6387,-4.6388,-4.6408,-4.6408,-4.6408,-4.6408,-4.643,-4.6431,-4.6431,0,0,0,0,0,0,0,0,0,0,0,0,0,-4.633,-4.6331,-4.6362,-4.6362,-4.6363,-4.6387,-4.6387,-4.6388,-4.6408,-4.6408,-4.6408,-4.6408,-4.643,-4.6431,-4.6431,0,0,0,0,0,0,0,0,0,0,0,0,0,-4.6348,-4.6331,-4.6362,-4.6376,-4.6377,-4.6387,-4.6387,-4.6388,-4.6407,-4.6408,-4.6408,-4.6408,-4.643,-4.6431,-4.6431,-4.6429,0,0,-4.6433,-4.6433,0,0,0,0,0,0,0,0,-4.6347,-4.635,-4.6373,-4.6375,-4.6376,-4.6395,-4.6384,-4.6401,-4.6407,-4.6396,-4.6408,-4.6409,-4.6418,-4.6419,-4.6423,-4.643,-4.6431,-4.6433,-4.6433,-4.6434,-4.6434,0,0,0,0,0,0,0,-4.6346,-4.6349,-4.6372,-4.6374,-4.6375,-4.638,-4.6383,-4.6388,-4.6405,-4.6397,-4.6398,-4.6401,-4.6419,-4.6423,-4.6424,-4.6431,-4.6433,-4.6433,-4.6434,-4.6434,-4.644,-4.644,0,0,0,0,0,0,-4.6343,-4.6347,-4.6371,-4.6373,-4.6362,-4.638,-4.6384,-4.6388,-4.6405,-4.6408,-4.6401,-4.6402,-4.6422,-4.6423,-4.6425,-4.6425,-4.6434,-4.6434,-4.6434,-4.644,-4.644,-4.6439,0,0,0,0,0,0,-4.6342,-4.6345,-4.637,-4.6361,-4.6364,-4.6381,-4.6386,-4.6389,-4.6393,-4.6408,-4.6411,-4.6402,-4.6422,-4.6424,-4.6429,-4.6426,-4.6434,-4.6435,-4.644,-4.644,-4.644,-4.6424,0,0,0,0,0,0,-4.6341,-4.6345,-4.6344,-4.636,-4.6365,-4.6373,-4.6386,-4.6389,-4.6394,-4.6396,-4.641,-4.6412,-4.6422,-4.6428,-4.6429,-4.6427,-4.6435,-4.644,-4.644,-4.644,-4.6425,-4.6423,-4.6422,0,0,0,0,0,-4.634,-4.6336,-4.6343,-4.6346,-4.6364,-4.6373,-4.6375,-4.6388,-4.6394,-4.6393,-4.6404,-4.6412,-4.6426,-4.6428,-4.643,-4.6428,-4.6441,-4.644,-4.644,-4.6425,-4.6423,-4.6422,0,0,0,0,0,0,-4.6316,-4.6339,-4.6347,-4.6348,-4.6359,-4.6376,-4.6376,-4.6385,-4.6393,-4.6394,-4.6409,-4.6412,-4.6415,-4.6422,-4.6423,-4.6428,-4.6435,-4.6435,-4.6423,-4.6421,-4.642,-4.6418,-4.6436,0,0,0,0,0,-4.6312,-4.6318,-4.6337,-4.6337,-4.6342,-4.6358,-4.6363,-4.6372,-4.6383,-4.6387,-4.6397,-4.6407,-4.6414,-4.6418,-4.6425,-4.6426,-4.643,-4.6426,-4.6425,-4.6423,-4.6423,-4.6426,-4.6425,-4.6438,-4.6438,-4.6438,0,0,-4.6301,-4.6315,-4.6317,-4.6333,-4.6342,-4.6348,-4.6361,-4.6367,-4.6372,-4.6387,-4.6393,-4.6401,-4.6413,-4.6417,-4.6419,-4.6422,-4.6421,-4.6423,-4.6422,-4.6422,-4.6426,-4.6425,-4.6423,-4.6438,-4.6438,-4.6438,0,0,-4.6286,-4.6296,-4.6299,-4.6309,-4.6324,-4.6335,-4.6336,-4.6353,-4.636,-4.6366,-4.6379,-4.6385,-4.6396,-4.6405,-4.6411,-4.6404,-4.6412,-4.6406,-4.6398,-4.6401,-4.64,-4.6399,-4.6398,-4.6397,-4.6406,-4.6406,-4.6406,0,-4.6271,-4.6282,-4.6298,-4.6304,-4.6311,-4.6329,-4.6332,-4.634,-4.6356,-4.6361,-4.6365,-4.6382,-4.6391,-4.6398,-4.6397,-4.6401,-4.6403,-4.6404,-4.6399,-4.6398,-4.6398,-4.6397,-4.6396,-4.6405,-4.6405,-4.6405,-4.6405,0,-4.6263,-4.6271,-4.6271,-4.6289,-4.6296,-4.63,-4.6318,-4.6323,-4.6333,-4.6344,-4.6352,-4.6364,-4.6376,-4.6378,-4.6386,-4.6387,-4.639,-4.6396,-4.6403,-4.6396,-4.6395,-4.6395,-4.6404,-4.6404,-4.6404,-4.6404,0,0,-4.623,-4.6261,-4.626,-4.627,-4.629,-4.6296,-4.6302,-4.6315,-4.632,-4.6331,-4.6337,-4.6349,-4.6357,-4.6363,-4.6374,-4.6377,-4.6373,-4.6384,-4.6384,-4.6382,-4.6376,-4.6371,-4.637,-4.6379,-4.6379,-4.6379,-4.6376,0,-4.6218,-4.6231,-4.6248,-4.6255,-4.6264,-4.6282,-4.6288,-4.6301,-4.6313,-4.6321,-4.6334,-4.6342,-4.6351,-4.6356,-4.636,-4.6372,-4.6372,-4.6373,-4.6385,-4.6385,-4.6381,-4.637,-4.6363,-4.6359,-4.6375,-4.6375,-4.6375,0,-4.6205,-4.6218,-4.6227,-4.625,-4.6254,-4.6258,-4.6274,-4.6282,-4.6298,-4.6306,-4.6316,-4.6329,-4.6337,-4.6344,-4.6356,-4.6357,-4.6363,-4.6371,-4.6371,-4.6372,-4.6379,-4.6371,-4.6358,-4.6358,-4.6375,-4.6375,-4.6375,0,-4.6181,-4.6201,-4.621,-4.6218,-4.6244,-4.6247,-4.6258,-4.6275,-4.6283,-4.6296,-4.6302,-4.6315,-4.6322,-4.6333,-4.6349,-4.6352,-4.636,-4.6368,-4.6367,-4.6367,-4.6367,-4.6367,-4.6355,-4.6371,-4.6371,-4.6371,-4.6371,0,-4.6166,-4.617,-4.62,-4.6205,-4.6212,-4.6233,-4.6239,-4.6251,-4.6267,-4.6275,-4.6292,-4.6299,-4.632,-4.633,-4.6343,-4.6352,-4.6355,-4.6362,-4.6365,-4.6361,-4.636,-4.6364,-4.6365,-4.6371,-4.6371,-4.6371,-4.6371,0,-4.6139,-4.616,-4.6171,-4.6196,-4.6203,-4.6207,-4.6229,-4.6235,-4.6249,-4.626,-4.6264,-4.6285,-4.6299,-4.6316,-4.6334,-4.6343,-4.6351,-4.6356,-4.6346,-4.6348,-4.6346,-4.6347,-4.6337,-4.6338,-4.6353,-4.6353,-4.6353,0,-4.6128,-4.6133,-4.616,-4.6168,-4.6179,-4.6191,-4.6201,-4.6222,-4.6231,-4.6252,-4.6256,-4.6271,-4.6284,-4.6305,-4.6322,-4.6337,-4.6342,-4.6338,-4.6344,-4.634,-4.6343,-4.6343,-4.6344,-4.6336,-4.6336,-4.6336,-4.6336,0,-4.6106,-4.6117,-4.613,-4.6149,-4.616,-4.6175,-4.619,-4.6196,-4.6221,-4.623,-4.6245,-4.6256,-4.6276,-4.6291,-4.6309,-4.632,-4.6332,-4.6334,-4.6335,-4.633,-4.6324,-4.6328,-4.6342,-4.6334,-4.6334,-4.6334,-4.6334,-4.6334,-4.6087,-4.6093,-4.6115,-4.613,-4.6145,-4.616,-4.6169,-4.6186,-4.6199,-4.6219,-4.6231,-4.6246,-4.6265,-4.629,-4.6302,-4.6314,-4.6318,-4.6319,-4.6319,-4.6319,-4.6318,-4.6323,-4.6317,-4.6317,-4.6317,-4.6317,-4.6317,0,-4.6066,-4.6083,-4.6097,-4.612,-4.6133,-4.6146,-4.6165,-4.6174,-4.6188,-4.6206,-4.622,-4.6238,-4.6254,-4.6275,-4.6292,-4.6298,-4.6304,-4.6302,-4.6301,-4.6304,-4.6312,-4.631,-4.6297,-4.6297,-4.6297,-4.6297,-4.6297,-4.6297,-4.6057,-4.6069,-4.6084,-4.6104,-4.612,-4.6137,-4.6147,-4.6161,-4.6176,-4.6197,-4.6211,-4.6225,-4.6244,-4.6264,-4.628,-4.6286,-4.6291,-4.6287,-4.6295,-4.6302,-4.6303,-4.6305,-4.6303,-4.6288,-4.6288,-4.6286,-4.6286,-4.6286]}]]